Other Public Products
Issued by NWS Grand Forks, ND

Home | Current Version | Previous Version | Graphics & Text | Print | Product List | Glossary On
Versions: 1 2 3 4 5 6 7 8 9 10 11 12 13 14 15 16 17 18 19 20 21 22 23 24 25 26 27 28 29 30 31 32 33 34 35 36 37 38 39 40 41 42 43 44 45 46 47 48 49 50
000
FPUS83 KFGF 252310
OPUFGF
PRAIRIE TO PINES WEATHER ROUNDUP
NATIONAL WEATHER SERVICE EASTERN NORTH DAKOTA/GRAND FORKS ND
500 PM CST THU DEC 25 2014

 **SATELLITE DATA USED TO AUGMENT SKY COVER AT AUTOMATED STATIONS**
 *****  WEATHER ACROSS EASTERN NORTH DAKOTA  *****

CITY           SKY/WX    TMP DP  RH WIND       PRES   REMARKS
GRAND FORKS    CLOUDY    27  23  85 N8        29.89R WCI  19
GRAND FORKS AF MIX PCPN  27  27 100 N8        29.89R WCI  18
GRAND CITY NWS   N/A     27 N/A N/A N13         N/A  WCI  16
BUXTON         NOT AVBL
DEVILS LAKE    CLOUDY    27  21  80 N10       29.87R WCI  17
FARGO          CLOUDY    30  24  78 N10       29.87R WCI  21
WAHPETON ARPT  CLOUDY    30  27  86 N8        29.85R WCI  23
$$

 *****  WEATHER ACROSS CENTRAL AND WESTERN NORTH DAKOTA  *****

CITY           SKY/WX    TMP DP  RH WIND       PRES   REMARKS
JAMESTOWN      CLOUDY    27  21  78 N16       29.85R WCI  15
BISMARCK       CLOUDY    28  21  75 NW10      29.90R WCI  19
MINOT          CLOUDY    24  18  77 NW16      29.90R WCI  11
MINOT AFB      CLOUDY    25  23  93 NW15      29.91R WCI  12
GARRISON         N/A     25  20  81 NW14      29.89R WCI  13
WILLISTON      CLOUDY    23  16  74 NW14      29.97R WCI  11
DICKINSON      CLOUDY    24  17  74 N15       29.88R WCI  11
HETTINGER      CLOUDY    23  18  81 N20       29.89R WCI   8
$$

 *****  OTHER OBSERVATIONS NORTHEAST NORTH DAKOTA  *****

CITY           SKY/WX    TMP DP  RH WIND       PRES   REMARKS
WALHALLA         N/A     27  25  93 N12       29.90R WCI  16
LANGDON        CLOUDY    23  19  86 N12       29.86R WCI  12
CAVALIER       CLOUDY    27  21  80 N9        29.89R WCI  17
GRAFTON        NOT AVBL
CANDO          CLOUDY    25  25 100 N7        29.88R FOG     WCI  17
FORT TOTTEN    NOT AVBL
ROLLA          CLOUDY    23  23 100 N10       29.88R WCI  12
RUGBY          CLOUDY    27  23  86 NW10      29.88R WCI  17
 ***** THE ABOVE OBSERVATIONS ARE NON NWS ARE NOT QUALITY
        CONTROLLED AND MAY MIS-REPORT RAIN FOR SNOW...
$$

 *****  OTHER OBSERVATIONS SOUTHEAST NORTH DAKOTA *****

CITY           SKY/WX    TMP DP  RH WIND       PRES   REMARKS
COOPERSTOWN    NOT AVBL
VALLEY CITY    CLOUDY    27  27 100 N8        29.86R WCI  18
OAKES            N/A     27  27 100 N16       29.85R WCI  14
GWINNER        CLOUDY    30  30 100 N6        29.85S WCI  24
BUFFALO        NOT AVBL
WYNDMERE         N/A     28  27  93 NW5         N/A  WCI  23
 ***** THE ABOVE OBSERVATIONS ARE NON NWS ARE NOT QUALITY
       CONTROLLED AND MAY MIS-REPORT RAIN FOR SNOW...
$$

  *****  WEATHER ACROSS NORTHERN MINNESOTA  *****

CITY           SKY/WX    TMP DP  RH WIND       PRES   REMARKS
FLAG ISLAND    CLOUDY    27  25  93 W14       29.81R WCI  15
WARROAD        CLOUDY    27  23  86 W7        29.83R WCI  19
ROSEAU         CLOUDY    28  23  80 NW6       29.84R WCI  22
HALLOCK        CLOUDY    27  25  93 NW9       29.88R WCI  17
THF RVR FALLS  CLOUDY    27  21  80 N9        29.86R WCI  17
HALSTAD          N/A     28  21  75 N9          N/A  WCI  19
FOSSTON        CLOUDY    23  21  93 NW7       29.85R WCI  15
BAUDETTE       CLOUDY    28  22  78 NW9       29.80R WCI  19
WASKISH        CLOUDY    27  23  86 CALM      29.82R
CROOKSTON      CLOUDY    27  25  93 N10       29.88R WCI  17
$$
  *****  WEATHER ACROSS CENTRAL AND WEST MINNESOTA  *****

CITY           SKY/WX    TMP DP  RH WIND       PRES   REMARKS
BEMIDJI        CLOUDY    27  21  78 W9        29.81R WCI  18
PARK RAPIDS    CLOUDY    30  23  75 NW10      29.79R WCI  21
WADENA         CLOUDY    28  25  86 NW8       29.80R WCI  20
DETROIT LAKES  CLOUDY    28  28 100 N8        29.83R WCI  20
MOORHEAD       CLOUDY    30  28  93 N10       29.87R WCI  21
FERGUS FALLS   CLOUDY    28  27  93 N12       29.86R WCI  18
ELBOW LAKE     CLOUDY    28  26  89 N10       29.81S WCI  19
MORRIS MN      MOCLDY    30  27  86 N10       29.81R WCI  21
STAPLES        CLOUDY    28  25  86 N6        29.80R WCI  22
WHEATON        CLOUDY    27  23  86 NW8       29.86R WCI  18
$$
  *****  WEATHER ELSEWHERE ACROSS MINNESOTA  *****

CITY           SKY/WX    TMP DP  RH WIND       PRES   REMARKS
DULUTH         CLOUDY    32  26  78 W5        29.78R
INTRNTL FALLS  CLOUDY    28  23  81 W8        29.79R WCI  20
ELY            CLOUDY    28  23  80 W3        29.76R
CLOQUET        CLOUDY    32  27  80 CALM      29.78S
BRAINERD       CLOUDY    30  24  78 N7        29.80R WCI  23
HIBBING        CLOUDY    31  23  72 NW7       29.78R WCI  24
ALEXANDRIA     CLOUDY    29  25  85 N5        29.80R WCI  24
SAINT CLOUD    CLOUDY    36  28  73 CALM      29.79R
MINNEAPOLIS    CLOUDY    34  29  82 SE6       29.80R
$$

  *****  WEATHER ACROSS SOUTH DAKOTA  *****

CITY           SKY/WX    TMP DP  RH WIND       PRES   REMARKS
SIOUX FALLS    CLOUDY    33  29  85 E13       29.72R WCI  24
BROOKINGS      NOT AVBL
WATERTOWN      CLOUDY    26  23  88 N17       29.77R FOG     WCI  13
HURON          CLOUDY    27  23  85 N20G26    29.78R WCI  13
SISSETON         N/A     27  25  92 N12       29.83R WCI  17
ABERDEEN       MOCLDY    28  22  78 N18       29.85R WCI  15
MITCHELL       CLOUDY    31  28  89 N20       29.76R WCI  19
PIERRE         CLOUDY    28  24  85 N21       29.82R WCI  15
MOBRIDGE       CLOUDY    28  22  78 N17       29.83R WCI  16
RAPID CITY     LGT SNOW  25  21  85 N23       29.82R BLWGSNOWWCI  10
$$

  *****  SOME WEATHER IN NEARBY STATES *****

CITY           SKY/WX    TMP DP  RH WIND       PRES   REMARKS
GLASGOW MT     CLOUDY    23  16  74 N13       29.99R WCI  11
GREAT FALLS MT CLEAR     21  17  84 S7        29.93S WCI  12
CHEYENNE WY    SNOW      22  18  85 NE15G26   29.61R VSB 1/2 WCI   9
SCOTTSBLUFF NE LGT SNOW  28  24  85 N16       29.69R FOG     WCI  16
OMAHA NE       PTCLDY    46  33  60 S8        29.64R
DES MOINES IA  MOCLDY    46  31  55 S10       29.73R
DAVENPORT IA   PTCLDY    43  31  62 S13       29.89R
CHICAGO IL     MOCLDY    39  32  76 S10       29.97R
EAU CLAIRE WI  CLOUDY    33  28  81 SE5       29.81R
LA CROSSE WI   CLEAR     37  29  72 E5        29.81S
$$

  *****  SOME NATIONAL WEATHER *****

CITY           SKY/WX    TMP DP  RH WIND       PRES   REMARKS
LA GUARDIA NY  MOCLDY    49  29  46 W13G21    29.96R
RALEIGH NC     CLEAR     48  33  56 CALM      30.16R
ATLANTA GA     PTCLDY    48  33  56 NW7       30.21R
NEW ORLEANS LA MOCLDY    53  40  61 E7        30.21S
OKLAHOMA CITY  MOCLDY    56  25  30 S18       29.76R
ALBUQUERQUE NM MOCLDY    49  15  25 NW7       29.60F
SALT LAKE CITY LGT SNOW  30  28  92 N5        29.73R FOG
LOS ANGELES CA MOSUNNY   63  21  20 NW10G20   29.84R
BOISE ID       CLEAR     36  24  62 NW20      29.96R
SEATTLE WA     MOCLDY    45  37  73 SW5       30.22R
$$

*** WEATHER ACROSS MANITOBA...SASKATCHEWAN AND ONTARIO ***
                ***ONTARIO***

CITY           SKY/WX    TMP DP  RH WIND       PRES   REMARKS
GERALDTON      MOCLDY    25  25 100 S3        29.70
THUNDER BAY    FLURRIES  32  28  86 W6        29.78R
SIOUX LOOKOUT  FLURRIES  28  27  93 NW5       29.72R WCI  23
TORONTO        CLOUDY    39  30  70 W21G32    29.98R
BIG TROUT LK   LGT SNOW  19  19 100 NW3       29.68R
PICKLE LAKE    FLURRIES  28  25  86 W3        29.66R
DRYDEN         CLOUDY    27  27 100 W8        29.74R WCI  18
KENORA         NOT AVBL
$$
                *** MANITOBA***

CITY           SKY/WX    TMP DP  RH WIND       PRES   REMARKS
BRANDON        CLOUDY    21  18  86 N10       29.91R WCI  10
DAUPHIN        CLOUDY    21  18  86 W8        29.92R WCI  12
ISLAND LAKE    CLOUDY    19  18  93 W6        29.78R WCI  11
PILOT MOUND      N/A     23  19  86 N5          N/A  WCI  17
THE PAS        CLOUDY     1  -2  85 NW17      29.99R WCI -19
THOMPSON       LGT SNOW   7   3  85 NW9       29.87R WCI  -7
WINNIPEG       CLOUDY    25  21  86 NW17      29.90R WCI  11
CHURCHILL      LGT SNOW   1   0  92 NW20      29.85R WCI -20
GILLAM         LGT SNOW  14  12  92 NW12G17   29.79R DRFTSNOWWCI   0
$$
                ***SASKATCHEWAN***

CITY           SKY/WX    TMP DP  RH WIND       PRES   REMARKS
ESTEVAN        MOCLDY    18  12  79 NW18G24   29.95R WCI   2
KINDERSLEY     NOT AVBL
LLOYDMINSTER   FLURRIES   7   5  92 NE3       29.98R
PRINCE ALBERT  CLOUDY    -2  -8  78 NW6       30.06R WCI -14
REGINA         NOT AVBL
YORKTON        FLURRIES   5   1  85 NW13G20   29.96R WCI -12
N. BATTLEFORD  CLOUDY     3   0  85 N5        30.06R WCI  -6


USA.gov is the U.S. government's official web portal to all federal, state and local government web resources and services.